Time,TemperatureF,DewpointF,PressureIn,WindDirection,WindDirectionDegrees,WindSpeedMPH,WindSpeedGustMPH,Humidity,HourlyPrecipIn,Conditions,Clouds,dailyrainin,SoftwareType,DateUTC
2013-05-02 00:02:00,36.0,-99.9,-100.00,North,7,18.0,-999.0,0,-99.99,,,-99.99,,2013-05-02 05:02:00,
2013-05-02 00:12:00,36.0,-99.9,-100.00,NNE,14,21.0,-999.0,0,-99.99,,,-99.99,,2013-05-02 05:12:00,
2013-05-02 00:22:00,36.0,-99.9,-100.00,NNE,33,19.0,-999.0,0,-99.99,,,-99.99,,2013-05-02 05:22:00,
2013-05-02 00:32:00,36.0,-99.9,-100.00,NNE,14,21.0,-999.0,0,-99.99,,,-99.99,,2013-05-02 05:32:00,
2013-05-02 00:42:00,36.0,-99.9,-100.00,NNE,16,29.0,-999.0,0,-99.99,,,-99.99,,2013-05-02 05:42:00,
2013-05-02 00:52:00,36.0,-99.9,-100.00,NNE,19,23.0,-999.0,0,-99.99,,,-99.99,,2013-05-02 05:52:00,
2013-05-02 01:02:00,35.0,-99.9,-100.00,NNE,18,24.0,-999.0,0,-99.99,,,-99.99,,2013-05-02 06:02:00,
2013-05-02 01:12:00,35.0,-99.9,-100.00,North,9,20.0,-999.0,0,-99.99,,,-99.99,,2013-05-02 06:12:00,
2013-05-02 01:22:00,35.0,-99.9,-100.00,NNE,19,28.0,-999.0,0,-99.99,,,-99.99,,2013-05-02 06:22:00,
2013-05-02 01:32:00,35.0,-99.9,-100.00,NNE,14,28.0,-999.0,0,-99.99,,,-99.99,,2013-05-02 06:32:00,
2013-05-02 01:42:00,35.0,-99.9,-100.00,NNE,14,28.0,-999.0,0,-99.99,,,-99.99,,2013-05-02 06:42:00,
2013-05-02 01:52:00,35.0,-99.9,-100.00,North,9,26.0,-999.0,0,-99.99,,,-99.99,,2013-05-02 06:52:00,
2013-05-02 02:02:00,35.0,-99.9,-100.00,NNE,22,22.0,-999.0,0,-99.99,,,-99.99,,2013-05-02 07:02:00,
2013-05-02 02:11:00,35.0,-99.9,-100.00,NNE,21,18.0,-999.0,0,-99.99,,,-99.99,,2013-05-02 07:11:00,
2013-05-02 02:22:00,35.0,-99.9,-100.00,NNE,21,20.0,-999.0,0,-99.99,,,-99.99,,2013-05-02 07:22:00,
2013-05-02 02:32:00,35.0,-99.9,-100.00,NNE,23,19.0,-999.0,0,-99.99,,,-99.99,,2013-05-02 07:32:00,
2013-05-02 02:42:00,35.0,-99.9,-100.00,NNE,23,19.0,-999.0,0,-99.99,,,-99.99,,2013-05-02 07:42:00,
2013-05-02 02:52:00,34.0,-99.9,-100.00,North,11,23.0,-999.0,0,-99.99,,,-99.99,,2013-05-02 07:52:00,
2013-05-02 03:02:00,34.0,-99.9,-100.00,NNE,27,26.0,-999.0,0,-99.99,,,-99.99,,2013-05-02 08:02:00,
2013-05-02 03:12:00,34.0,-99.9,-100.00,NNE,24,19.0,-999.0,0,-99.99,,,-99.99,,2013-05-02 08:12:00,
2013-05-02 03:22:00,34.0,-99.9,-100.00,NNE,16,21.0,-999.0,0,-99.99,,,-99.99,,2013-05-02 08:22:00,
2013-05-02 03:32:00,34.0,-99.9,-100.00,East,94,20.0,-999.0,0,-99.99,,,-99.99,,2013-05-02 08:32:00,
2013-05-02 03:42:00,34.0,-99.9,-100.00,NNE,33,17.0,-999.0,0,-99.99,,,-99.99,,2013-05-02 08:42:00,
2013-05-02 03:52:00,34.0,-99.9,-100.00,NNE,21,16.0,-999.0,0,-99.99,,,-99.99,,2013-05-02 08:52:00,
2013-05-02 04:02:00,34.0,-99.9,-100.00,NNE,14,18.0,-999.0,0,-99.99,,,-99.99,,2013-05-02 09:02:00,
2013-05-02 04:12:00,34.0,-99.9,-100.00,NNE,25,17.0,-999.0,0,-99.99,,,-99.99,,2013-05-02 09:12:00,
2013-05-02 04:22:00,33.0,-99.9,-100.00,NNE,23,15.0,-999.0,0,-99.99,,,-99.99,,2013-05-02 09:22:00,
2013-05-02 04:33:00,33.0,-99.9,-100.00,North,10,16.0,-999.0,0,-99.99,,,-99.99,,2013-05-02 09:33:00,
2013-05-02 04:43:00,33.0,-99.9,-100.00,East,94,15.0,-999.0,0,-99.99,,,-99.99,,2013-05-02 09:43:00,
2013-05-02 04:53:00,33.0,-99.9,-100.00,NNE,12,20.0,-999.0,0,-99.99,,,-99.99,,2013-05-02 09:53:00,
2013-05-02 05:03:00,33.0,-99.9,-100.00,NNE,12,14.0,-999.0,0,-99.99,,,-99.99,,2013-05-02 10:03:00,
2013-05-02 05:12:00,33.0,-99.9,-100.00,NNE,12,13.0,-999.0,0,-99.99,,,-99.99,,2013-05-02 10:12:00,
2013-05-02 05:23:00,33.0,-99.9,-100.00,NNE,20,14.0,-999.0,0,-99.99,,,-99.99,,2013-05-02 10:23:00,
2013-05-02 05:33:00,33.0,-99.9,-100.00,NNE,12,13.0,-999.0,0,-99.99,,,-99.99,,2013-05-02 10:33:00,
2013-05-02 05:42:00,33.0,-99.9,-100.00,North,10,13.0,-999.0,0,-99.99,,,-99.99,,2013-05-02 10:42:00,
2013-05-02 05:53:00,33.0,-99.9,-100.00,North,9,14.0,-999.0,0,-99.99,,,-99.99,,2013-05-02 10:53:00,
2013-05-02 06:02:00,33.0,-99.9,-100.00,North,9,13.0,-999.0,0,-99.99,,,-99.99,,2013-05-02 11:02:00,
2013-05-02 06:12:00,33.0,-99.9,-100.00,NNE,16,17.0,-999.0,0,-99.99,,,-99.99,,2013-05-02 11:12:00,
2013-05-02 06:22:00,32.0,-99.9,-100.00,NNE,12,14.0,-999.0,0,-99.99,,,-99.99,,2013-05-02 11:22:00,
2013-05-02 06:32:00,32.0,-99.9,-100.00,North,6,12.0,-999.0,0,-99.99,,,-99.99,,2013-05-02 11:32:00,
2013-05-02 06:42:00,32.0,-99.9,-100.00,North,5,11.0,-999.0,0,-99.99,,,-99.99,,2013-05-02 11:42:00,
2013-05-02 06:52:00,32.0,-99.9,-100.00,North,6,16.0,-999.0,0,-99.99,,,-99.99,,2013-05-02 11:52:00,
2013-05-02 07:02:00,32.0,-99.9,-100.00,North,-999,13.0,-999.0,0,-99.99,,,-99.99,,2013-05-02 12:02:00,
2013-05-02 07:12:00,32.0,-99.9,-100.00,North,8,13.0,-999.0,0,-99.99,,,-99.99,,2013-05-02 12:12:00,
2013-05-02 07:22:00,32.0,-99.9,-100.00,South,175,13.0,-999.0,0,-99.99,,,-99.99,,2013-05-02 12:22:00,
2013-05-02 07:32:00,32.0,-99.9,-100.00,West,265,14.0,-999.0,0,-99.99,,,-99.99,,2013-05-02 12:32:00,
2013-05-02 07:42:00,32.0,-99.9,-100.00,West,265,14.0,-999.0,0,-99.99,,,-99.99,,2013-05-02 12:42:00,
2013-05-02 07:52:00,33.0,-99.9,-100.00,North,5,14.0,-999.0,0,-99.99,,,-99.99,,2013-05-02 12:52:00,
2013-05-02 08:02:00,33.0,-99.9,-100.00,North,3,17.0,-999.0,0,-99.99,,,-99.99,,2013-05-02 13:02:00,
2013-05-02 08:11:00,33.0,-99.9,-100.00,North,5,16.0,-999.0,0,-99.99,,,-99.99,,2013-05-02 13:11:00,
2013-05-02 08:22:00,33.0,-99.9,-100.00,NNE,13,16.0,-999.0,0,-99.99,,,-99.99,,2013-05-02 13:22:00,
2013-05-02 08:32:00,34.0,-99.9,-100.00,North,7,18.0,-999.0,0,-99.99,,,-99.99,,2013-05-02 13:32:00,
2013-05-02 08:42:00,34.0,-99.9,-100.00,North,-999,20.0,-999.0,0,-99.99,,,-99.99,,2013-05-02 13:42:00,
2013-05-02 08:52:00,34.0,-99.9,-100.00,East,91,14.0,-999.0,0,-99.99,,,-99.99,,2013-05-02 13:52:00,
2013-05-02 09:02:00,35.0,-99.9,-100.00,South,175,15.0,-999.0,0,-99.99,,,-99.99,,2013-05-02 14:02:00,
2013-05-02 09:11:00,35.0,-99.9,-100.00,South,189,13.0,-999.0,0,-99.99,,,-99.99,,2013-05-02 14:11:00,
2013-05-02 09:22:00,35.0,-99.9,-100.00,North,-999,17.0,-999.0,0,-99.99,,,-99.99,,2013-05-02 14:22:00,
2013-05-02 09:32:00,35.0,-99.9,-100.00,West,259,17.0,-999.0,0,-99.99,,,-99.99,,2013-05-02 14:32:00,
2013-05-02 09:43:00,35.0,-99.9,-100.00,East,88,17.0,-999.0,0,-99.99,,,-99.99,,2013-05-02 14:43:00,
2013-05-02 09:52:00,35.0,-99.9,-100.00,North,-999,18.0,-999.0,0,-99.99,,,-99.99,,2013-05-02 14:52:00,
2013-05-02 10:02:00,35.0,-99.9,-100.00,North,-999,17.0,-999.0,0,-99.99,,,-99.99,,2013-05-02 15:02:00,
2013-05-02 10:12:00,36.0,-99.9,-100.00,East,96,15.0,-999.0,0,-99.99,,,-99.99,,2013-05-02 15:12:00,
2013-05-02 10:22:00,36.0,-99.9,-100.00,North,-999,22.0,-999.0,0,-99.99,,,-99.99,,2013-05-02 15:22:00,
2013-05-02 10:33:00,37.0,-99.9,-100.00,North,-999,22.0,-999.0,0,-99.99,,,-99.99,,2013-05-02 15:33:00,
2013-05-02 10:43:00,37.0,-99.9,-100.00,North,-999,22.0,-999.0,0,-99.99,,,-99.99,,2013-05-02 15:43:00,
2013-05-02 11:03:00,38.0,-99.9,-100.00,North,-999,21.0,-999.0,0,-99.99,,,-99.99,,2013-05-02 16:03:00,
2013-05-02 11:13:00,38.0,-99.9,-100.00,West,259,21.0,-999.0,0,-99.99,,,-99.99,,2013-05-02 16:13:00,
2013-05-02 11:23:00,39.0,-99.9,-100.00,North,-999,24.0,-999.0,0,-99.99,,,-99.99,,2013-05-02 16:23:00,
2013-05-02 11:32:00,39.0,-99.9,-100.00,North,-999,28.0,-999.0,0,-99.99,,,-99.99,,2013-05-02 16:32:00,
2013-05-02 11:43:00,40.0,-99.9,-100.00,North,-999,24.0,-999.0,0,-99.99,,,-99.99,,2013-05-02 16:43:00,
2013-05-02 11:52:00,40.0,-99.9,-100.00,West,260,22.0,-999.0,0,-99.99,,,-99.99,,2013-05-02 16:52:00,
2013-05-02 12:02:00,40.0,-99.9,-100.00,East,89,24.0,-999.0,0,-99.99,,,-99.99,,2013-05-02 17:02:00,
2013-05-02 12:12:00,42.0,-99.9,-100.00,South,174,28.0,-999.0,0,-99.99,,,-99.99,,2013-05-02 17:12:00,
2013-05-02 12:22:00,42.0,-99.9,-100.00,North,-999,29.0,-999.0,0,-99.99,,,-99.99,,2013-05-02 17:22:00,
2013-05-02 12:32:00,41.0,-99.9,-100.00,South,174,27.0,-999.0,0,-99.99,,,-99.99,,2013-05-02 17:32:00,
2013-05-02 12:42:00,42.0,-99.9,-100.00,North,-999,28.0,-999.0,0,-99.99,,,-99.99,,2013-05-02 17:42:00,
2013-05-02 12:52:00,43.0,-99.9,-100.00,NNW,343,34.0,-999.0,0,-99.99,,,-99.99,,2013-05-02 17:52:00,
2013-05-02 13:02:00,44.0,-99.9,-100.00,North,-999,29.0,-999.0,0,-99.99,,,-99.99,,2013-05-02 18:02:00,
2013-05-02 13:12:00,43.0,-99.9,-100.00,North,-999,21.0,-999.0,0,-99.99,,,-99.99,,2013-05-02 18:12:00,
2013-05-02 13:22:00,44.0,-99.9,-100.00,West,259,23.0,-999.0,0,-99.99,,,-99.99,,2013-05-02 18:22:00,
2013-05-02 13:32:00,44.0,-99.9,-100.00,North,-999,29.0,-999.0,0,-99.99,,,-99.99,,2013-05-02 18:32:00,
2013-05-02 13:42:00,45.0,-99.9,-100.00,North,-999,23.0,-999.0,0,-99.99,,,-99.99,,2013-05-02 18:42:00,
2013-05-02 13:52:00,45.0,-99.9,-100.00,East,87,31.0,-999.0,0,-99.99,,,-99.99,,2013-05-02 18:52:00,
2013-05-02 14:01:00,46.0,-99.9,-100.00,South,175,20.0,-999.0,0,-99.99,,,-99.99,,2013-05-02 19:01:00,
2013-05-02 14:11:00,46.0,-99.9,-100.00,North,-999,25.0,-999.0,0,-99.99,,,-99.99,,2013-05-02 19:11:00,
2013-05-02 14:22:00,46.0,-99.9,-100.00,North,-999,25.0,-999.0,0,-99.99,,,-99.99,,2013-05-02 19:22:00,
2013-05-02 14:32:00,47.0,-99.9,-100.00,South,174,28.0,-999.0,0,-99.99,,,-99.99,,2013-05-02 19:32:00,
2013-05-02 14:42:00,47.0,-99.9,-100.00,North,4,30.0,-999.0,0,-99.99,,,-99.99,,2013-05-02 19:42:00,
2013-05-02 14:52:00,48.0,-99.9,-100.00,North,-999,34.0,-999.0,0,-99.99,,,-99.99,,2013-05-02 19:52:00,
2013-05-02 15:02:00,48.0,-99.9,-100.00,NNW,342,22.0,-999.0,0,-99.99,,,-99.99,,2013-05-02 20:02:00,
2013-05-02 15:12:00,48.0,-99.9,-100.00,South,173,23.0,-999.0,0,-99.99,,,-99.99,,2013-05-02 20:12:00,
2013-05-02 15:22:00,48.0,-99.9,-100.00,North,5,27.0,-999.0,0,-99.99,,,-99.99,,2013-05-02 20:22:00,
2013-05-02 15:32:00,48.0,-99.9,-100.00,North,-999,33.0,-999.0,0,-99.99,,,-99.99,,2013-05-02 20:32:00,
2013-05-02 15:42:00,49.0,-99.9,-100.00,West,261,29.0,-999.0,0,-99.99,,,-99.99,,2013-05-02 20:42:00,
2013-05-02 15:52:00,49.0,-99.9,-100.00,North,-999,21.0,-999.0,0,-99.99,,,-99.99,,2013-05-02 20:52:00,
2013-05-02 16:01:00,50.0,-99.9,-100.00,NNW,344,26.0,-999.0,0,-99.99,,,-99.99,,2013-05-02 21:01:00,
2013-05-02 16:12:00,49.0,-99.9,-100.00,North,-999,27.0,-999.0,0,-99.99,,,-99.99,,2013-05-02 21:12:00,
2013-05-02 16:22:00,49.0,-99.9,-100.00,West,272,26.0,-999.0,0,-99.99,,,-99.99,,2013-05-02 21:22:00,
2013-05-02 16:33:00,49.0,-99.9,-100.00,ENE,63,32.0,-999.0,0,-99.99,,,-99.99,,2013-05-02 21:33:00,
2013-05-02 16:43:00,50.0,-99.9,-100.00,South,173,27.0,-999.0,0,-99.99,,,-99.99,,2013-05-02 21:43:00,
2013-05-02 16:53:00,49.0,-99.9,-100.00,NNE,28,19.0,-999.0,0,-99.99,,,-99.99,,2013-05-02 21:53:00,
2013-05-02 17:03:00,49.0,-99.9,-100.00,North,7,28.0,-999.0,0,-99.99,,,-99.99,,2013-05-02 22:03:00,
2013-05-02 17:13:00,49.0,-99.9,-100.00,West,259,28.0,-999.0,0,-99.99,,,-99.99,,2013-05-02 22:13:00,
2013-05-02 17:22:00,49.0,-99.9,-100.00,East,88,28.0,-999.0,0,-99.99,,,-99.99,,2013-05-02 22:22:00,
2013-05-02 17:33:00,50.0,-99.9,-100.00,ESE,107,19.0,-999.0,0,-99.99,,,-99.99,,2013-05-02 22:33:00,
2013-05-02 17:43:00,48.0,-99.9,-100.00,North,6,32.0,-999.0,0,-99.99,,,-99.99,,2013-05-02 22:43:00,
2013-05-02 17:53:00,48.0,-99.9,-100.00,North,11,26.0,-999.0,0,-99.99,,,-99.99,,2013-05-02 22:53:00,
2013-05-02 18:02:00,49.0,-99.9,-100.00,South,174,23.0,-999.0,0,-99.99,,,-99.99,,2013-05-02 23:02:00,
2013-05-02 18:12:00,48.0,-99.9,-100.00,NNE,14,37.0,-999.0,0,-99.99,,,-99.99,,2013-05-02 23:12:00,
2013-05-02 18:22:00,47.0,-99.9,-100.00,East,90,22.0,-999.0,0,-99.99,,,-99.99,,2013-05-02 23:22:00,
2013-05-02 18:32:00,48.0,-99.9,-100.00,South,174,31.0,-999.0,0,-99.99,,,-99.99,,2013-05-02 23:32:00,
2013-05-02 18:42:00,48.0,-99.9,-100.00,North,-999,24.0,-999.0,0,-99.99,,,-99.99,,2013-05-02 23:42:00,
2013-05-02 18:52:00,48.0,-99.9,-100.00,North,9,29.0,-999.0,0,-99.99,,,-99.99,,2013-05-02 23:52:00,
2013-05-02 19:02:00,47.0,-99.9,-100.00,North,-999,27.0,-999.0,0,-99.99,,,-99.99,,2013-05-03 00:02:00,
2013-05-02 19:12:00,47.0,-99.9,-100.00,North,8,27.0,-999.0,0,-99.99,,,-99.99,,2013-05-03 00:12:00,
2013-05-02 19:22:00,46.0,-99.9,-100.00,North,-999,29.0,-999.0,0,-99.99,,,-99.99,,2013-05-03 00:22:00,
2013-05-02 19:32:00,46.0,-99.9,-100.00,North,4,28.0,-999.0,0,-99.99,,,-99.99,,2013-05-03 00:32:00,
2013-05-02 19:42:00,46.0,-99.9,-100.00,North,4,28.0,-999.0,0,-99.99,,,-99.99,,2013-05-03 00:42:00,
2013-05-02 19:52:00,46.0,-99.9,-100.00,NNE,21,22.0,-999.0,0,-99.99,,,-99.99,,2013-05-03 00:52:00,
2013-05-02 20:02:00,46.0,-99.9,-100.00,North,-999,24.0,-999.0,0,-99.99,,,-99.99,,2013-05-03 01:02:00,
2013-05-02 20:11:00,45.0,-99.9,-100.00,East,90,24.0,-999.0,0,-99.99,,,-99.99,,2013-05-03 01:11:00,
2013-05-02 20:22:00,45.0,-99.9,-100.00,East,90,26.0,-999.0,0,-99.99,,,-99.99,,2013-05-03 01:22:00,
2013-05-02 20:32:00,45.0,-99.9,-100.00,East,87,21.0,-999.0,0,-99.99,,,-99.99,,2013-05-03 01:32:00,
2013-05-02 20:42:00,44.0,-99.9,-100.00,North,5,22.0,-999.0,0,-99.99,,,-99.99,,2013-05-03 01:42:00,
2013-05-02 20:52:00,44.0,-99.9,-100.00,NNE,15,21.0,-999.0,0,-99.99,,,-99.99,,2013-05-03 01:52:00,
2013-05-02 21:02:00,43.0,-99.9,-100.00,NNE,12,19.0,-999.0,0,-99.99,,,-99.99,,2013-05-03 02:02:00,
2013-05-02 21:11:00,42.0,-99.9,-100.00,North,6,15.0,-999.0,0,-99.99,,,-99.99,,2013-05-03 02:11:00,
2013-05-02 21:22:00,42.0,-99.9,-100.00,North,7,16.0,-999.0,0,-99.99,,,-99.99,,2013-05-03 02:22:00,
2013-05-02 21:32:00,41.0,-99.9,-100.00,North,8,17.0,-999.0,0,-99.99,,,-99.99,,2013-05-03 02:32:00,
2013-05-02 21:42:00,41.0,-99.9,-100.00,North,5,15.0,-999.0,0,-99.99,,,-99.99,,2013-05-03 02:42:00,
2013-05-02 21:52:00,40.0,-99.9,-100.00,North,6,13.0,-999.0,0,-99.99,,,-99.99,,2013-05-03 02:52:00,
2013-05-02 22:01:00,40.0,-99.9,-100.00,North,8,14.0,-999.0,0,-99.99,,,-99.99,,2013-05-03 03:01:00,
2013-05-02 22:11:00,39.0,-99.9,-100.00,North,7,14.0,-999.0,0,-99.99,,,-99.99,,2013-05-03 03:11:00,
2013-05-02 22:22:00,38.0,-99.9,-100.00,North,11,14.0,-999.0,0,-99.99,,,-99.99,,2013-05-03 03:22:00,
2013-05-02 22:33:00,37.0,-99.9,-100.00,NNE,14,11.0,-999.0,0,-99.99,,,-99.99,,2013-05-03 03:33:00,
2013-05-02 22:43:00,36.0,-99.9,-100.00,NNE,13,11.0,-999.0,0,-99.99,,,-99.99,,2013-05-03 03:43:00,
2013-05-02 22:53:00,36.0,-99.9,-100.00,NNE,14,10.0,-999.0,0,-99.99,,,-99.99,,2013-05-03 03:53:00,
2013-05-02 23:03:00,35.0,-99.9,-100.00,North,6,12.0,-999.0,0,-99.99,,,-99.99,,2013-05-03 04:03:00,
2013-05-02 23:13:00,35.0,-99.9,-100.00,NNE,16,12.0,-999.0,0,-99.99,,,-99.99,,2013-05-03 04:13:00,
2013-05-02 23:23:00,35.0,-99.9,-100.00,NNE,13,12.0,-999.0,0,-99.99,,,-99.99,,2013-05-03 04:23:00,
2013-05-02 23:33:00,34.0,-99.9,-100.00,NNE,14,12.0,-999.0,0,-99.99,,,-99.99,,2013-05-03 04:33:00,
2013-05-02 23:43:00,34.0,-99.9,-100.00,NNE,12,14.0,-999.0,0,-99.99,,,-99.99,,2013-05-03 04:43:00,
2013-05-02 23:53:00,34.0,-99.9,-100.00,NNE,13,11.0,-999.0,0,-99.99,,,-99.99,,2013-05-03 04:53:00,